PAL240 RPLL-RPMZ

Flight info

Callsign PAL240
Flight time 1h 28m
Altitude 31000
Route VERDE2P VERDE A461 TINDO TINDO1W
Aircraft A321/M-SDE3FGHIRWY/LB1

Departure

Time 2026-04-16 09:10
Airport Ninoy Aquino International Airport (RPLL)

Arrival

Time 2026-04-16 10:39
Airport Zamboanga International Airport (RPMZ)
Time Latitude Longitude Altitude Speed Heading
2026-04-16 08:51 14.50859 121.01339 67 ft 0 kts 329°
2026-04-16 09:01 14.50823 121.01361 59 ft 4 kts 329°
2026-04-16 09:01 14.50806 121.01371 58 ft 4 kts 314°
2026-04-16 09:01 14.50797 121.01391 55 ft 4 kts 259°
2026-04-16 09:02 14.50802 121.01408 60 ft 0 kts 240°
2026-04-16 09:02 14.50790 121.01388 55 ft 4 kts 240°
2026-04-16 09:02 14.50777 121.01363 59 ft 4 kts 240°
2026-04-16 09:02 14.50763 121.01339 59 ft 3 kts 240°
2026-04-16 09:03 14.50761 121.01336 60 ft 0 kts 240°
2026-04-16 09:06 14.50744 121.01320 66 ft 7 kts 211°
2026-04-16 09:06 14.50694 121.01342 64 ft 11 kts 105°
2026-04-16 09:07 14.50734 121.01437 58 ft 18 kts 60°
2026-04-16 09:07 14.50808 121.01570 63 ft 25 kts 60°
2026-04-16 09:07 14.50905 121.01743 60 ft 31 kts 60°
2026-04-16 09:07 14.51021 121.01952 64 ft 36 kts 60°
2026-04-16 09:08 14.51150 121.02185 64 ft 27 kts 59°
2026-04-16 09:08 14.51240 121.02346 60 ft 26 kts 60°
2026-04-16 09:08 14.51332 121.02511 59 ft 27 kts 60°
2026-04-16 09:08 14.51425 121.02679 60 ft 28 kts 60°
2026-04-16 09:09 14.51496 121.02825 66 ft 13 kts 95°
2026-04-16 09:09 14.51443 121.02871 60 ft 12 kts 159°
2026-04-16 09:09 14.51357 121.02834 59 ft 14 kts 240°
2026-04-16 09:09 14.51338 121.02796 59 ft 14 kts 242°
2026-04-16 09:10 14.51176 121.02507 63 ft 82 kts 240°
2026-04-16 09:10 14.50785 121.01804 59 ft 141 kts 240°
2026-04-16 09:10 14.50247 121.00842 482 ft 152 kts 241°
2026-04-16 09:10 14.49765 120.99878 1135 ft 154 kts 256°
2026-04-16 09:11 14.49787 120.98767 1747 ft 157 kts 272°
2026-04-16 09:11 14.49502 120.97655 2136 ft 172 kts 236°
2026-04-16 09:11 14.48765 120.96587 2439 ft 194 kts 236°
2026-04-16 09:11 14.48021 120.95323 2599 ft 220 kts 238°
2026-04-16 09:12 14.47217 120.93878 2867 ft 243 kts 239°
2026-04-16 09:12 14.46338 120.92293 3220 ft 263 kts 239°
2026-04-16 09:12 14.45412 120.90633 3834 ft 270 kts 239°
2026-04-16 09:12 14.44463 120.88946 4528 ft 274 kts 237°
2026-04-16 09:13 14.43192 120.87494 5193 ft 276 kts 212°
2026-04-16 09:13 14.41413 120.86788 5895 ft 277 kts 185°
2026-04-16 09:13 14.39485 120.86722 6627 ft 278 kts 178°
2026-04-16 09:13 14.37541 120.86765 7311 ft 281 kts 177°
2026-04-16 09:14 14.35587 120.86965 7971 ft 284 kts 169°
2026-04-16 09:14 14.33626 120.87315 8633 ft 288 kts 168°
2026-04-16 09:14 14.31636 120.87695 9277 ft 293 kts 168°
2026-04-16 09:14 14.29616 120.88089 9914 ft 297 kts 168°
2026-04-16 09:15 14.27527 120.88499 10151 ft 317 kts 168°
2026-04-16 09:15 14.25283 120.88939 10277 ft 338 kts 168°
2026-04-16 09:15 14.22929 120.89393 10695 ft 347 kts 168°
2026-04-16 09:15 14.20536 120.89851 11244 ft 351 kts 168°
2026-04-16 09:16 14.18126 120.90310 11824 ft 355 kts 168°
2026-04-16 09:16 14.15682 120.90773 12382 ft 358 kts 168°
2026-04-16 09:16 14.13219 120.91239 12927 ft 362 kts 168°
2026-04-16 09:16 14.10724 120.91711 13468 ft 366 kts 167°
2026-04-16 09:17 14.08209 120.92187 13953 ft 369 kts 167°
2026-04-16 09:17 14.05670 120.92669 14415 ft 373 kts 167°
2026-04-16 09:17 14.03109 120.93156 14898 ft 376 kts 168°
2026-04-16 09:17 14.00523 120.93649 15380 ft 379 kts 168°
2026-04-16 09:18 13.97918 120.94146 15867 ft 382 kts 168°
2026-04-16 09:18 13.95326 120.94639 16342 ft 385 kts 168°
2026-04-16 09:18 13.92682 120.95141 16810 ft 389 kts 168°
2026-04-16 09:18 13.90009 120.95646 17279 ft 392 kts 168°
2026-04-16 09:19 13.87320 120.96154 17775 ft 395 kts 168°
2026-04-16 09:19 13.84608 120.96667 18224 ft 398 kts 168°
2026-04-16 09:19 13.81867 120.97185 18648 ft 401 kts 168°
2026-04-16 09:19 13.79119 120.97704 19098 ft 403 kts 168°
2026-04-16 09:20 13.76355 120.98228 19547 ft 405 kts 168°
2026-04-16 09:20 13.73582 120.98758 19990 ft 407 kts 168°
2026-04-16 09:20 13.70793 120.99292 20436 ft 409 kts 168°
2026-04-16 09:20 13.67984 120.99828 20867 ft 411 kts 169°
2026-04-16 09:21 13.65158 121.00364 21304 ft 414 kts 169°
2026-04-16 09:21 13.62325 121.00902 21742 ft 416 kts 169°
2026-04-16 09:21 13.59471 121.01443 22167 ft 418 kts 169°
2026-04-16 09:21 13.56607 121.01984 22587 ft 420 kts 169°
2026-04-16 09:22 13.53726 121.02528 23011 ft 422 kts 169°
2026-04-16 09:22 13.50828 121.03048 23418 ft 424 kts 173°
2026-04-16 09:22 13.47883 121.03203 23744 ft 425 kts 179°
2026-04-16 09:22 13.44917 121.03231 24069 ft 427 kts 179°
2026-04-16 09:23 13.41927 121.03255 24389 ft 429 kts 179°
2026-04-16 09:23 13.38936 121.03280 24706 ft 431 kts 179°
2026-04-16 09:23 13.35939 121.03307 25013 ft 432 kts 179°
2026-04-16 09:23 13.32917 121.03336 25317 ft 434 kts 179°
2026-04-16 09:24 13.29890 121.03370 25618 ft 436 kts 179°
2026-04-16 09:24 13.26849 121.03401 25930 ft 438 kts 179°
2026-04-16 09:24 13.23796 121.03432 26224 ft 440 kts 179°
2026-04-16 09:24 13.20727 121.03463 26520 ft 442 kts 179°
2026-04-16 09:25 13.17654 121.03494 26815 ft 443 kts 179°
2026-04-16 09:25 13.14597 121.03525 27108 ft 445 kts 179°
2026-04-16 09:25 13.11496 121.03557 27412 ft 447 kts 179°
2026-04-16 09:25 13.09388 121.03578 27598 ft 448 kts 179°
2026-04-16 09:26 13.05244 121.03618 27974 ft 451 kts 179°
2026-04-16 09:26 13.02108 121.03647 28254 ft 453 kts 179°
2026-04-16 09:26 12.98947 121.03676 28537 ft 454 kts 179°
2026-04-16 09:26 12.96850 121.03696 28733 ft 456 kts 179°
2026-04-16 09:27 12.93672 121.03729 29003 ft 457 kts 179°
2026-04-16 09:27 12.90482 121.03766 29264 ft 459 kts 179°
2026-04-16 09:27 12.87281 121.03803 29527 ft 461 kts 179°
2026-04-16 09:27 12.82979 121.03846 29874 ft 463 kts 179°
2026-04-16 09:28 12.79747 121.03873 30100 ft 465 kts 179°
2026-04-16 09:28 12.76503 121.03902 30317 ft 467 kts 179°
2026-04-16 09:28 12.73252 121.03934 30537 ft 469 kts 179°
2026-04-16 09:28 12.69985 121.03969 30762 ft 470 kts 179°
2026-04-16 09:29 12.66711 121.04003 30888 ft 470 kts 179°
2026-04-16 09:29 12.63489 121.04036 30920 ft 456 kts 179°
2026-04-16 09:29 12.60358 121.04067 30916 ft 446 kts 179°
2026-04-16 09:30 12.54191 121.04127 30914 ft 441 kts 179°
2026-04-16 09:30 12.48055 121.04187 30908 ft 441 kts 179°
2026-04-16 09:31 12.41919 121.04246 30906 ft 441 kts 179°
2026-04-16 09:31 12.35778 121.04400 30907 ft 441 kts 173°
2026-04-16 09:32 12.29738 121.05503 30902 ft 442 kts 169°
2026-04-16 09:32 12.24712 121.06456 30907 ft 442 kts 169°
2026-04-16 09:33 12.17684 121.07782 30911 ft 442 kts 169°
2026-04-16 09:33 12.12622 121.08741 30915 ft 442 kts 169°
2026-04-16 09:34 12.05596 121.10065 30913 ft 442 kts 169°
2026-04-16 09:34 11.99554 121.11203 30912 ft 441 kts 169°
2026-04-16 09:35 11.94492 121.12161 30913 ft 441 kts 169°
2026-04-16 09:35 11.88453 121.13301 30915 ft 441 kts 169°
2026-04-16 09:36 11.82412 121.14438 30917 ft 441 kts 170°
2026-04-16 09:36 11.76415 121.15565 30919 ft 441 kts 169°
2026-04-16 09:37 11.70389 121.16705 30917 ft 441 kts 169°
2026-04-16 09:37 11.64355 121.17850 30914 ft 440 kts 169°
2026-04-16 09:38 11.58337 121.18987 30911 ft 440 kts 170°
2026-04-16 09:38 11.52309 121.20121 30908 ft 440 kts 170°
2026-04-16 09:39 11.46296 121.21252 30907 ft 439 kts 170°
2026-04-16 09:39 11.40277 121.22378 30905 ft 439 kts 170°
2026-04-16 09:40 11.34267 121.23508 30905 ft 439 kts 170°
2026-04-16 09:40 11.28256 121.24636 30907 ft 439 kts 170°
2026-04-16 09:41 11.22249 121.25764 30903 ft 439 kts 170°
2026-04-16 09:41 11.16235 121.26899 30904 ft 439 kts 170°
2026-04-16 09:42 11.10232 121.28026 30900 ft 439 kts 170°
2026-04-16 09:42 11.04229 121.29155 30900 ft 439 kts 170°
2026-04-16 09:43 10.98225 121.30281 30900 ft 439 kts 170°
2026-04-16 09:43 10.92261 121.31408 30898 ft 439 kts 170°
2026-04-16 09:44 10.86254 121.32567 30903 ft 440 kts 170°
2026-04-16 09:44 10.80243 121.33729 30905 ft 440 kts 170°
2026-04-16 09:45 10.74231 121.34885 30902 ft 439 kts 170°
2026-04-16 09:45 10.68223 121.36039 30903 ft 439 kts 170°
2026-04-16 09:46 10.62215 121.37181 30902 ft 439 kts 170°
2026-04-16 09:46 10.56205 121.38322 30898 ft 439 kts 170°
2026-04-16 09:47 10.50189 121.39474 30895 ft 439 kts 170°
2026-04-16 09:47 10.44177 121.40605 30896 ft 440 kts 170°
2026-04-16 09:48 10.38153 121.41717 30901 ft 440 kts 171°
2026-04-16 09:48 10.32137 121.42833 30899 ft 440 kts 171°
2026-04-16 09:49 10.26159 121.43945 30900 ft 440 kts 170°
2026-04-16 09:49 10.20125 121.45068 30901 ft 440 kts 170°
2026-04-16 09:50 10.14098 121.46188 30901 ft 440 kts 170°
2026-04-16 09:50 10.08068 121.47311 30901 ft 440 kts 170°
2026-04-16 09:51 10.02048 121.48432 30900 ft 440 kts 170°
2026-04-16 09:51 9.96023 121.49555 30899 ft 440 kts 170°
2026-04-16 09:52 9.90039 121.50666 30901 ft 440 kts 170°
2026-04-16 09:52 9.84009 121.51785 30900 ft 440 kts 170°
2026-04-16 09:53 9.77993 121.52907 30898 ft 440 kts 170°
2026-04-16 09:53 9.71985 121.54027 30899 ft 439 kts 170°
2026-04-16 09:54 9.65973 121.55137 30896 ft 439 kts 170°
2026-04-16 09:54 9.59955 121.56251 30898 ft 439 kts 170°
2026-04-16 09:55 9.53937 121.57372 30896 ft 439 kts 170°
2026-04-16 09:55 9.47929 121.58488 30899 ft 439 kts 170°
2026-04-16 09:56 9.41915 121.59597 30899 ft 439 kts 170°
2026-04-16 09:56 9.35949 121.60705 30898 ft 439 kts 170°
2026-04-16 09:57 9.29934 121.61822 30900 ft 439 kts 170°
2026-04-16 09:57 9.23914 121.62929 30901 ft 439 kts 170°
2026-04-16 09:58 9.17907 121.64040 30904 ft 439 kts 170°
2026-04-16 09:58 9.11899 121.65167 30905 ft 438 kts 170°
2026-04-16 09:59 9.05941 121.66273 30903 ft 438 kts 170°
2026-04-16 09:59 8.99941 121.67376 30903 ft 438 kts 170°
2026-04-16 10:00 8.93945 121.68478 30902 ft 438 kts 170°
2026-04-16 10:00 8.87954 121.69584 30900 ft 438 kts 170°
2026-04-16 10:01 8.78965 121.71238 30897 ft 437 kts 170°
2026-04-16 10:01 8.72971 121.72344 30902 ft 437 kts 170°
2026-04-16 10:02 8.66977 121.73451 30903 ft 437 kts 170°
2026-04-16 10:02 8.61023 121.74556 30898 ft 437 kts 170°
2026-04-16 10:03 8.55036 121.75666 30902 ft 437 kts 170°
2026-04-16 10:03 8.49047 121.76772 30899 ft 437 kts 170°
2026-04-16 10:04 8.43054 121.77872 30906 ft 438 kts 170°
2026-04-16 10:04 8.37094 121.78965 30648 ft 428 kts 170°
2026-04-16 10:05 8.34182 121.79502 30258 ft 424 kts 170°
2026-04-16 10:05 8.31281 121.80037 29754 ft 422 kts 170°
2026-04-16 10:05 8.28389 121.80573 29282 ft 419 kts 170°
2026-04-16 10:05 8.25528 121.81103 28827 ft 415 kts 170°
2026-04-16 10:06 8.22736 121.81616 28397 ft 411 kts 171°
2026-04-16 10:06 8.19924 121.82130 27967 ft 408 kts 170°
2026-04-16 10:06 8.17132 121.82643 27542 ft 406 kts 170°
2026-04-16 10:06 8.14362 121.83152 27129 ft 403 kts 170°
2026-04-16 10:07 8.11610 121.83655 26718 ft 401 kts 171°
2026-04-16 10:07 8.08869 121.84156 26319 ft 399 kts 170°
2026-04-16 10:07 8.06141 121.84656 25916 ft 398 kts 171°
2026-04-16 10:07 8.03422 121.85157 25496 ft 396 kts 170°
2026-04-16 10:08 8.00720 121.85658 25080 ft 395 kts 170°
2026-04-16 10:08 7.98022 121.86159 24656 ft 394 kts 170°
2026-04-16 10:08 7.95327 121.86657 24224 ft 393 kts 171°
2026-04-16 10:08 7.92636 121.87153 23795 ft 392 kts 171°
2026-04-16 10:09 7.89945 121.87648 23314 ft 392 kts 171°
2026-04-16 10:09 7.87264 121.88137 22831 ft 390 kts 171°
2026-04-16 10:09 7.84635 121.88616 22389 ft 388 kts 170°
2026-04-16 10:09 7.81989 121.89100 21926 ft 385 kts 170°
2026-04-16 10:10 7.79341 121.89587 21482 ft 383 kts 170°
2026-04-16 10:10 7.76723 121.90071 21034 ft 381 kts 169°
2026-04-16 10:10 7.74128 121.90549 20583 ft 379 kts 169°
2026-04-16 10:10 7.71538 121.91025 20133 ft 377 kts 169°
2026-04-16 10:11 7.68966 121.91495 19685 ft 375 kts 169°
2026-04-16 10:11 7.66399 121.91962 19239 ft 374 kts 169°
2026-04-16 10:11 7.63839 121.92429 18798 ft 372 kts 169°
2026-04-16 10:11 7.61327 121.92889 18347 ft 371 kts 169°
2026-04-16 10:12 7.58793 121.93356 17866 ft 370 kts 168°
2026-04-16 10:12 7.56275 121.93817 17425 ft 366 kts 169°
2026-04-16 10:12 7.53773 121.94276 16988 ft 363 kts 168°
2026-04-16 10:12 7.51299 121.94731 16555 ft 360 kts 168°
2026-04-16 10:13 7.48848 121.95182 16129 ft 357 kts 168°
2026-04-16 10:13 7.46419 121.95628 15699 ft 354 kts 168°
2026-04-16 10:13 7.43998 121.96073 15275 ft 351 kts 168°
2026-04-16 10:13 7.41600 121.96513 14854 ft 349 kts 169°
2026-04-16 10:14 7.39214 121.96948 14439 ft 346 kts 168°
2026-04-16 10:14 7.36849 121.97381 14026 ft 344 kts 168°
2026-04-16 10:14 7.34576 121.97980 13606 ft 341 kts 156°
2026-04-16 10:14 7.32517 121.99126 13176 ft 336 kts 142°
2026-04-16 10:15 7.30791 122.00678 12777 ft 331 kts 135°
2026-04-16 10:15 7.29133 122.02272 12377 ft 328 kts 135°
2026-04-16 10:15 7.27487 122.03845 11986 ft 325 kts 135°
2026-04-16 10:15 7.25855 122.05403 11590 ft 323 kts 135°
2026-04-16 10:16 7.24225 122.06959 11204 ft 321 kts 135°
2026-04-16 10:16 7.22625 122.08485 11017 ft 311 kts 136°
2026-04-16 10:16 7.21079 122.09958 10790 ft 302 kts 136°
2026-04-16 10:16 7.19558 122.11409 10259 ft 300 kts 135°
2026-04-16 10:17 7.18054 122.12846 9825 ft 294 kts 135°
2026-04-16 10:17 7.16607 122.14227 9449 ft 288 kts 135°
2026-04-16 10:17 7.15153 122.15612 9093 ft 287 kts 136°
2026-04-16 10:17 7.13706 122.16991 8741 ft 285 kts 135°
2026-04-16 10:18 7.12268 122.18362 8393 ft 284 kts 135°
2026-04-16 10:18 7.10834 122.19729 8041 ft 283 kts 135°
2026-04-16 10:18 7.09407 122.21092 7689 ft 282 kts 135°
2026-04-16 10:18 7.07986 122.22449 7342 ft 281 kts 135°
2026-04-16 10:19 7.06567 122.23805 6995 ft 280 kts 135°
2026-04-16 10:19 7.05153 122.25156 6642 ft 280 kts 135°
2026-04-16 10:19 7.03741 122.26505 6293 ft 279 kts 135°
2026-04-16 10:19 7.02810 122.27392 6049 ft 279 kts 135°
2026-04-16 10:20 7.01412 122.28723 5838 ft 272 kts 135°
2026-04-16 10:20 7.00017 122.29957 5708 ft 263 kts 146°
2026-04-16 10:20 6.98358 122.30655 5552 ft 256 kts 169°
2026-04-16 10:20 6.96562 122.30675 5132 ft 267 kts 192°
2026-04-16 10:21 6.94836 122.29997 4825 ft 263 kts 205°
2026-04-16 10:21 6.93219 122.29203 4277 ft 254 kts 212°
2026-04-16 10:21 6.91922 122.28029 3608 ft 250 kts 233°
2026-04-16 10:21 6.91158 122.26497 3060 ft 241 kts 255°
2026-04-16 10:22 6.90981 122.24895 2842 ft 222 kts 274°
2026-04-16 10:22 6.91085 122.23416 2746 ft 200 kts 274°
2026-04-16 10:22 6.91171 122.22092 2655 ft 179 kts 274°
2026-04-16 10:22 6.91248 122.20888 2558 ft 168 kts 274°
2026-04-16 10:23 6.91322 122.19734 2474 ft 164 kts 273°
2026-04-16 10:23 6.91395 122.18604 2289 ft 156 kts 273°
2026-04-16 10:23 6.91464 122.17539 2063 ft 150 kts 273°
2026-04-16 10:23 6.91532 122.16502 1854 ft 147 kts 273°
2026-04-16 10:24 6.91599 122.15478 1673 ft 146 kts 273°
2026-04-16 10:24 6.91667 122.14461 1475 ft 145 kts 273°
2026-04-16 10:24 6.91735 122.13461 1287 ft 145 kts 273°
2026-04-16 10:24 6.91803 122.12436 1098 ft 145 kts 273°
2026-04-16 10:25 6.91870 122.11435 914 ft 145 kts 273°
2026-04-16 10:25 6.91939 122.10425 720 ft 145 kts 273°
2026-04-16 10:25 6.92006 122.09420 523 ft 144 kts 274°
2026-04-16 10:25 6.92071 122.08416 363 ft 143 kts 272°
2026-04-16 10:26 6.92139 122.07416 143 ft 143 kts 274°
2026-04-16 10:26 6.92223 122.06456 50 ft 125 kts 272°
2026-04-16 10:26 6.92276 122.05587 250 ft 137 kts 272°
2026-04-16 10:26 6.92315 122.04596 864 ft 140 kts 272°
2026-04-16 10:27 6.92361 122.03615 1187 ft 141 kts 274°
2026-04-16 10:27 6.92358 122.02626 1506 ft 145 kts 253°
2026-04-16 10:27 6.91621 122.01948 1729 ft 159 kts 193°
2026-04-16 10:27 6.90549 122.02249 1867 ft 174 kts 138°
2026-04-16 10:28 6.89807 122.03256 1992 ft 187 kts 121°
2026-04-16 10:28 6.89150 122.04459 2112 ft 205 kts 118°
2026-04-16 10:28 6.88448 122.05788 2269 ft 223 kts 118°
2026-04-16 10:28 6.87695 122.07176 2607 ft 228 kts 119°
2026-04-16 10:29 6.86914 122.08577 3002 ft 230 kts 119°
2026-04-16 10:29 6.86116 122.09979 3187 ft 231 kts 120°
2026-04-16 10:29 6.85319 122.11358 3206 ft 231 kts 120°
2026-04-16 10:29 6.84501 122.12753 3183 ft 231 kts 120°
2026-04-16 10:30 6.83679 122.14142 3210 ft 231 kts 121°
2026-04-16 10:30 6.82854 122.15528 3214 ft 231 kts 121°
2026-04-16 10:30 6.82028 122.16915 3213 ft 231 kts 121°
2026-04-16 10:30 6.81205 122.18299 3212 ft 231 kts 121°
2026-04-16 10:31 6.80379 122.19685 3210 ft 231 kts 121°
2026-04-16 10:31 6.79554 122.21070 3209 ft 231 kts 121°
2026-04-16 10:31 6.78746 122.22461 3210 ft 231 kts 115°
2026-04-16 10:31 6.78535 122.24025 3213 ft 230 kts 76°
2026-04-16 10:32 6.79261 122.25449 3217 ft 230 kts 56°
2026-04-16 10:32 6.80153 122.26787 3212 ft 230 kts 56°
2026-04-16 10:32 6.81056 122.28122 3210 ft 231 kts 56°
2026-04-16 10:32 6.82140 122.29298 3209 ft 230 kts 34°
2026-04-16 10:33 6.83614 122.29899 3210 ft 230 kts
2026-04-16 10:33 6.85200 122.29816 3212 ft 230 kts 345°
2026-04-16 10:33 6.86740 122.29368 3215 ft 230 kts 343°
2026-04-16 10:33 6.88278 122.28916 3213 ft 230 kts 342°
2026-04-16 10:34 6.89670 122.28149 3209 ft 230 kts 318°
2026-04-16 10:34 6.90615 122.26866 3212 ft 230 kts 294°
2026-04-16 10:34 6.90954 122.25300 3212 ft 230 kts 273°
2026-04-16 10:34 6.91052 122.23711 2917 ft 227 kts 274°
2026-04-16 10:35 6.91152 122.22153 2687 ft 219 kts 273°
2026-04-16 10:35 6.91248 122.20681 2553 ft 201 kts 273°
2026-04-16 10:35 6.91336 122.19358 2490 ft 178 kts 273°
2026-04-16 10:35 6.91417 122.18148 2210 ft 169 kts 273°
2026-04-16 10:36 6.91496 122.16996 1983 ft 161 kts 273°
2026-04-16 10:36 6.91568 122.15921 1777 ft 150 kts 273°
2026-04-16 10:36 6.91639 122.14888 1572 ft 146 kts 273°
2026-04-16 10:36 6.91709 122.13873 1383 ft 145 kts 273°
2026-04-16 10:37 6.91777 122.12864 1186 ft 144 kts 273°
2026-04-16 10:37 6.91844 122.11868 998 ft 144 kts 273°
2026-04-16 10:37 6.91912 122.10863 811 ft 144 kts 273°
2026-04-16 10:37 6.91981 122.09857 621 ft 143 kts 272°
2026-04-16 10:38 6.92049 122.08858 420 ft 143 kts 273°
2026-04-16 10:38 6.92112 122.07863 216 ft 142 kts 273°
2026-04-16 10:38 6.92186 122.06875 49 ft 136 kts 274°
2026-04-16 10:38 6.92231 122.06077 36 ft 78 kts 273°
2026-04-16 10:39 6.92250 122.05834 36 ft 2 kts 273°
2026-04-16 10:39 6.92253 122.05794 36 ft 9 kts 274°
2026-04-16 10:39 6.92259 122.05702 37 ft 17 kts 274°
2026-04-16 10:39 6.92268 122.05559 35 ft 24 kts 274°
2026-04-16 10:40 6.92282 122.05367 37 ft 31 kts 273°
2026-04-16 10:40 6.92296 122.05128 37 ft 37 kts 273°
2026-04-16 10:40 6.92310 122.04898 37 ft 26 kts 276°
2026-04-16 10:40 6.92313 122.04804 35 ft 6 kts 327°
2026-04-16 10:41 6.92330 122.04823 36 ft 3 kts 91°
2026-04-16 10:41 6.92315 122.04869 36 ft 11 kts 103°
2026-04-16 10:41 6.92307 122.04967 37 ft 18 kts 94°
2026-04-16 10:41 6.92299 122.05117 37 ft 25 kts 93°
2026-04-16 10:42 6.92285 122.05316 37 ft 32 kts 94°
2026-04-16 10:42 6.92269 122.05561 35 ft 38 kts 94°
2026-04-16 10:42 6.92249 122.05850 36 ft 45 kts 94°
2026-04-16 10:42 6.92233 122.06049 36 ft 2 kts 83°
2026-04-16 10:43 6.92234 122.06068 36 ft 5 kts 88°
2026-04-16 10:43 6.92232 122.06110 36 ft 7 kts 93°
2026-04-16 10:43 6.92227 122.06187 37 ft 15 kts 94°
2026-04-16 10:43 6.92184 122.06252 37 ft 6 kts 182°
2026-04-16 10:44 6.92137 122.06250 36 ft 8 kts 182°
2026-04-16 10:44 6.92128 122.06249 37 ft 0 kts 195°
2026-04-16 10:44 6.92127 122.06245 37 ft 1 kts 233°
2026-04-16 10:44 6.92122 122.06225 37 ft 5 kts 235°
2026-04-16 10:45 6.92087 122.06228 35 ft 6 kts 146°
2026-04-16 10:45 6.92060 122.06243 36 ft 4 kts 153°
2026-04-16 10:45 6.92055 122.06246 36 ft 0 kts 153°